Time,TemperatureF,DewpointF,PressureIn,WindDirection,WindDirectionDegrees,WindSpeedMPH,WindSpeedGustMPH,Humidity,HourlyPrecipIn,Conditions,Clouds,dailyrainin,SoftwareType,DateUTC
2013-01-03 00:15:00,164.0,99.9,30.18,SW,233,2.0,-999.0,80,-99.99,,,0.00,weatherlink.com 1.10,2013-01-03 05:15:00,
2013-01-03 00:29:00,164.0,99.9,30.19,SW,233,3.0,-999.0,80,-99.99,,,0.00,weatherlink.com 1.10,2013-01-03 05:29:00,
2013-01-03 00:44:00,164.0,99.9,30.20,SW,235,4.0,-999.0,80,-99.99,,,0.00,weatherlink.com 1.10,2013-01-03 05:44:00,
2013-01-03 00:59:00,164.0,99.9,30.20,SW,235,2.0,-999.0,80,-99.99,,,0.00,weatherlink.com 1.10,2013-01-03 05:59:00,
2013-01-03 01:14:00,164.0,99.9,30.19,SW,235,3.0,-999.0,81,-99.99,,,0.00,weatherlink.com 1.10,2013-01-03 06:14:00,
2013-01-03 01:29:00,164.0,99.9,30.20,SW,235,3.0,-999.0,81,-99.99,,,0.00,weatherlink.com 1.10,2013-01-03 06:29:00,
2013-01-03 01:44:00,164.0,99.9,30.20,WSW,237,3.0,-999.0,82,-99.99,,,0.00,weatherlink.com 1.10,2013-01-03 06:44:00,
2013-01-03 01:59:00,164.0,99.9,30.20,WSW,247,4.0,-999.0,82,-99.99,,,0.00,weatherlink.com 1.10,2013-01-03 06:59:00,
2013-01-03 02:14:00,164.0,99.9,30.20,WSW,240,3.0,-999.0,83,-99.99,,,0.00,weatherlink.com 1.10,2013-01-03 07:14:00,
2013-01-03 02:30:00,164.0,99.9,30.20,WSW,240,1.0,-999.0,83,-99.99,,,0.00,weatherlink.com 1.10,2013-01-03 07:30:00,
2013-01-03 02:45:00,164.0,99.9,30.19,WSW,240,1.0,-999.0,77,-99.99,,,0.00,weatherlink.com 1.10,2013-01-03 07:45:00,
2013-01-03 03:00:00,164.0,99.9,30.19,WSW,240,0.0,-999.0,83,-99.99,,,0.00,weatherlink.com 1.10,2013-01-03 08:00:00,
2013-01-03 03:15:00,164.0,99.9,30.19,WSW,240,2.0,-999.0,82,-99.99,,,0.00,weatherlink.com 1.10,2013-01-03 08:15:00,
2013-01-03 03:30:00,164.0,99.9,30.18,WSW,240,0.0,-999.0,83,-99.99,,,0.00,weatherlink.com 1.10,2013-01-03 08:30:00,
2013-01-03 03:45:00,164.0,99.9,30.17,WSW,240,0.0,-999.0,80,-99.99,,,0.00,weatherlink.com 1.10,2013-01-03 08:45:00,
2013-01-03 04:00:00,164.0,99.9,30.17,WSW,240,2.0,-999.0,83,-99.99,,,0.00,weatherlink.com 1.10,2013-01-03 09:00:00,
2013-01-03 04:15:00,164.0,99.9,30.17,WSW,240,0.0,-999.0,79,-99.99,,,0.00,weatherlink.com 1.10,2013-01-03 09:15:00,
2013-01-03 04:30:00,164.0,99.9,30.17,WSW,240,0.0,-999.0,81,-99.99,,,0.00,weatherlink.com 1.10,2013-01-03 09:30:00,
2013-01-03 04:45:00,164.0,99.9,30.17,WSW,240,0.0,-999.0,81,-99.99,,,0.00,weatherlink.com 1.10,2013-01-03 09:45:00,
2013-01-03 05:00:00,164.0,99.9,30.17,WSW,240,0.0,-999.0,81,-99.99,,,0.00,weatherlink.com 1.10,2013-01-03 10:00:00,
2013-01-03 05:15:00,164.0,99.9,30.17,WSW,239,0.0,-999.0,83,-99.99,,,0.00,weatherlink.com 1.10,2013-01-03 10:15:00,
2013-01-03 05:30:00,164.0,99.9,30.17,WSW,239,0.0,-999.0,84,-99.99,,,0.00,weatherlink.com 1.10,2013-01-03 10:30:00,
2013-01-03 05:46:00,164.0,99.9,30.17,WSW,239,0.0,-999.0,84,-99.99,,,0.00,weatherlink.com 1.10,2013-01-03 10:46:00,
2013-01-03 06:01:00,164.0,99.9,30.17,WSW,239,0.0,-999.0,80,-99.99,,,0.00,weatherlink.com 1.10,2013-01-03 11:01:00,
2013-01-03 06:16:00,164.0,99.9,30.18,SW,224,0.0,-999.0,85,-99.99,,,0.00,weatherlink.com 1.10,2013-01-03 11:16:00,
2013-01-03 06:31:00,164.0,99.9,30.18,SW,221,1.0,-999.0,83,-99.99,,,0.00,weatherlink.com 1.10,2013-01-03 11:31:00,
2013-01-03 06:46:00,164.0,99.9,30.18,SW,221,1.0,-999.0,83,-99.99,,,0.00,weatherlink.com 1.10,2013-01-03 11:46:00,
2013-01-03 07:01:00,164.0,99.9,30.18,SW,221,1.0,-999.0,82,-99.99,,,0.00,weatherlink.com 1.10,2013-01-03 12:01:00,
2013-01-03 07:16:00,164.0,99.9,30.17,ESE,114,2.0,-999.0,83,-99.99,,,0.00,weatherlink.com 1.10,2013-01-03 12:16:00,
2013-01-03 07:31:00,164.0,99.9,30.17,SE,127,3.0,-999.0,84,-99.99,,,0.00,weatherlink.com 1.10,2013-01-03 12:31:00,
2013-01-03 07:46:00,164.0,99.9,30.15,ESE,121,3.0,-999.0,84,-99.99,,,0.00,weatherlink.com 1.10,2013-01-03 12:46:00,
2013-01-03 08:01:00,164.0,99.9,30.15,SE,135,3.0,-999.0,84,-99.99,,,0.00,weatherlink.com 1.10,2013-01-03 13:01:00,
2013-01-03 08:16:00,164.0,99.9,30.16,SE,130,0.0,-999.0,79,-99.99,,,0.00,weatherlink.com 1.10,2013-01-03 13:16:00,
2013-01-03 08:31:00,164.0,99.9,30.15,SE,130,0.0,-999.0,80,-99.99,,,0.00,weatherlink.com 1.10,2013-01-03 13:31:00,
2013-01-03 08:46:00,164.0,99.9,30.15,SE,130,0.0,-999.0,82,-99.99,,,0.00,weatherlink.com 1.10,2013-01-03 13:46:00,
2013-01-03 09:01:00,164.0,99.9,30.15,SE,130,0.0,-999.0,84,-99.99,,,0.00,weatherlink.com 1.10,2013-01-03 14:01:00,
2013-01-03 09:16:00,164.0,99.9,30.15,SE,130,0.0,-999.0,80,-99.99,,,0.00,weatherlink.com 1.10,2013-01-03 14:16:00,
2013-01-03 09:32:00,0.3,-5.0,30.15,SE,130,0.0,-999.0,78,-99.99,,,0.00,weatherlink.com 1.10,2013-01-03 14:32:00,
2013-01-03 09:47:00,1.0,-6.0,30.24,SE,130,0.0,-999.0,73,-99.99,,,0.00,weatherlink.com 1.10,2013-01-03 14:47:00,
2013-01-03 10:02:00,2.1,-5.0,30.23,SE,130,2.0,-999.0,73,-99.99,,,0.00,weatherlink.com 1.10,2013-01-03 15:02:00,
2013-01-03 10:17:00,2.3,-5.0,30.24,SE,130,0.0,-999.0,72,-99.99,,,0.00,weatherlink.com 1.10,2013-01-03 15:17:00,
2013-01-03 10:32:00,5.3,-3.0,30.22,SE,130,0.0,-999.0,69,-99.99,,,0.00,weatherlink.com 1.10,2013-01-03 15:32:00,
2013-01-03 10:47:00,6.4,-2.0,30.22,SE,130,0.0,-999.0,67,-99.99,,,0.00,weatherlink.com 1.10,2013-01-03 15:47:00,
2013-01-03 11:02:00,8.5,-1.0,30.21,SE,130,0.0,-999.0,65,-99.99,,,0.00,weatherlink.com 1.10,2013-01-03 16:02:00,
2013-01-03 11:17:00,7.5,-2.0,30.20,SE,130,0.0,-999.0,66,-99.99,,,0.00,weatherlink.com 1.10,2013-01-03 16:17:00,
2013-01-03 11:32:00,8.3,-2.0,30.11,SE,130,0.0,-999.0,64,-99.99,,,0.00,weatherlink.com 1.10,2013-01-03 16:32:00,
2013-01-03 11:47:00,8.7,-2.0,30.11,SE,130,0.0,-999.0,63,-99.99,,,0.00,weatherlink.com 1.10,2013-01-03 16:47:00,
2013-01-03 12:02:00,9.6,-1.0,30.10,SE,130,0.0,-999.0,62,-99.99,,,0.00,weatherlink.com 1.10,2013-01-03 17:02:00,
2013-01-03 12:17:00,11.2,0.0,30.09,SE,130,0.0,-999.0,60,-99.99,,,0.00,weatherlink.com 1.10,2013-01-03 17:17:00,
2013-01-03 12:32:00,11.4,-1.0,30.07,SE,130,2.0,-999.0,59,-99.99,,,0.00,weatherlink.com 1.10,2013-01-03 17:32:00,
2013-01-03 12:48:00,10.2,-1.0,30.07,South,169,0.0,-999.0,61,-99.99,,,0.00,weatherlink.com 1.10,2013-01-03 17:48:00,
2013-01-03 13:03:00,9.6,-1.0,30.05,SSE,156,4.0,-999.0,63,-99.99,,,0.00,weatherlink.com 1.10,2013-01-03 18:03:00,
2013-01-03 13:18:00,10.1,0.0,30.05,South,191,0.0,-999.0,63,-99.99,,,0.00,weatherlink.com 1.10,2013-01-03 18:18:00,
2013-01-03 13:33:00,10.6,0.0,30.05,South,189,0.0,-999.0,62,-99.99,,,0.00,weatherlink.com 1.10,2013-01-03 18:33:00,
2013-01-03 13:48:00,11.5,0.0,30.04,South,189,0.0,-999.0,61,-99.99,,,0.00,weatherlink.com 1.10,2013-01-03 18:48:00,
2013-01-03 14:03:00,11.8,1.0,30.03,South,189,0.0,-999.0,61,-99.99,,,0.00,weatherlink.com 1.10,2013-01-03 19:03:00,
2013-01-03 14:18:00,12.6,1.0,30.02,South,189,4.0,-999.0,59,-99.99,,,0.00,weatherlink.com 1.10,2013-01-03 19:18:00,
2013-01-03 15:03:00,12.0,0.0,29.99,SE,141,0.0,-999.0,60,-99.99,,,0.00,weatherlink.com 1.10,2013-01-03 20:03:00,
2013-01-03 15:18:00,12.1,1.0,29.99,SSW,209,3.0,-999.0,60,-99.99,,,0.00,weatherlink.com 1.10,2013-01-03 20:18:00,
2013-01-03 15:33:00,11.8,1.0,29.99,WSW,257,3.0,-999.0,62,-99.99,,,0.00,weatherlink.com 1.10,2013-01-03 20:33:00,
2013-01-03 15:48:00,11.4,1.0,30.00,WSW,255,2.0,-999.0,64,-99.99,,,0.00,weatherlink.com 1.10,2013-01-03 20:48:00,
2013-01-03 16:03:00,10.4,2.0,29.99,WSW,255,2.0,-999.0,68,-99.99,,,0.00,weatherlink.com 1.10,2013-01-03 21:03:00,
2013-01-03 16:19:00,10.3,2.0,29.99,WSW,255,2.0,-999.0,69,-99.99,,,0.00,weatherlink.com 1.10,2013-01-03 21:19:00,
2013-01-03 16:34:00,10.2,2.0,29.99,WSW,255,0.0,-999.0,70,-99.99,,,0.00,weatherlink.com 1.10,2013-01-03 21:34:00,
2013-01-03 16:49:00,9.7,2.0,29.99,WSW,254,0.0,-999.0,71,-99.99,,,0.00,weatherlink.com 1.10,2013-01-03 21:49:00,
2013-01-03 17:04:00,9.6,2.0,29.99,SW,220,0.0,-999.0,71,-99.99,,,0.00,weatherlink.com 1.10,2013-01-03 22:04:00,
2013-01-03 17:19:00,9.3,2.0,29.99,SSE,167,0.0,-999.0,71,-99.99,,,0.00,weatherlink.com 1.10,2013-01-03 22:19:00,
2013-01-03 17:34:00,9.3,2.0,29.99,SSE,167,1.0,-999.0,72,-99.99,,,0.00,weatherlink.com 1.10,2013-01-03 22:34:00,
2013-01-03 17:49:00,9.3,2.0,29.99,SW,216,5.0,-999.0,72,-99.99,,,0.00,weatherlink.com 1.10,2013-01-03 22:49:00,
2013-01-03 18:04:00,8.1,1.0,29.98,SW,221,2.0,-999.0,73,-99.99,,,0.00,weatherlink.com 1.10,2013-01-03 23:04:00,
2013-01-03 18:19:00,9.1,2.0,29.98,SW,221,0.0,-999.0,72,-99.99,,,0.00,weatherlink.com 1.10,2013-01-03 23:19:00,
2013-01-03 18:34:00,8.6,2.0,29.98,SW,221,0.0,-999.0,74,-99.99,,,0.00,weatherlink.com 1.10,2013-01-03 23:34:00,
2013-01-03 18:49:00,8.1,2.0,29.98,SW,221,2.0,-999.0,76,-99.99,,,0.00,weatherlink.com 1.10,2013-01-03 23:49:00,
2013-01-03 19:04:00,8.2,2.0,29.97,SW,221,0.0,-999.0,77,-99.99,,,0.00,weatherlink.com 1.10,2013-01-04 00:04:00,
2013-01-03 19:19:00,8.9,3.0,29.97,SW,221,0.0,-999.0,75,-99.99,,,0.00,weatherlink.com 1.10,2013-01-04 00:19:00,
2013-01-03 19:34:00,9.4,3.0,29.97,WSW,242,0.0,-999.0,75,-99.99,,,0.00,weatherlink.com 1.10,2013-01-04 00:34:00,
2013-01-03 19:50:00,8.2,2.0,29.97,ESE,118,0.0,-999.0,76,-99.99,,,0.00,weatherlink.com 1.10,2013-01-04 00:50:00,
2013-01-03 20:05:00,12.7,6.0,29.96,SW,223,8.0,-999.0,75,-99.99,,,0.00,weatherlink.com 1.10,2013-01-04 01:05:00,
2013-01-03 20:20:00,13.0,6.0,29.95,SSW,213,4.0,-999.0,74,-99.99,,,0.00,weatherlink.com 1.10,2013-01-04 01:20:00,
2013-01-03 20:35:00,13.4,7.0,29.95,SW,216,6.0,-999.0,77,-99.99,,,0.00,weatherlink.com 1.10,2013-01-04 01:35:00,
2013-01-03 20:50:00,14.4,8.0,29.95,South,191,1.0,-999.0,76,-99.99,,,0.00,weatherlink.com 1.10,2013-01-04 01:50:00,
2013-01-03 21:05:00,14.0,8.0,29.95,SSW,193,3.0,-999.0,77,-99.99,,,0.00,weatherlink.com 1.10,2013-01-04 02:05:00,
2013-01-03 21:20:00,14.8,9.0,29.94,SSE,158,2.0,-999.0,77,-99.99,,,0.00,weatherlink.com 1.10,2013-01-04 02:20:00,
2013-01-03 21:35:00,14.7,9.0,30.01,South,191,3.0,-999.0,77,-99.99,,,0.00,weatherlink.com 1.10,2013-01-04 02:35:00,
2013-01-03 21:50:00,14.5,9.0,30.01,SE,141,1.0,-999.0,77,-99.99,,,0.00,weatherlink.com 1.10,2013-01-04 02:50:00,
2013-01-03 22:05:00,13.5,7.0,30.00,SE,143,0.0,-999.0,74,-99.99,,,0.00,weatherlink.com 1.10,2013-01-04 03:05:00,
2013-01-03 22:20:00,11.6,6.0,30.00,SSW,193,0.0,-999.0,78,-99.99,,,0.00,weatherlink.com 1.10,2013-01-04 03:20:00,
2013-01-03 22:35:00,10.5,5.0,30.00,East,94,0.0,-999.0,78,-99.99,,,0.00,weatherlink.com 1.10,2013-01-04 03:35:00,
2013-01-03 22:50:00,10.5,6.0,29.99,SE,128,0.0,-999.0,81,-99.99,,,0.00,weatherlink.com 1.10,2013-01-04 03:50:00,
2013-01-03 23:05:00,11.5,7.0,29.98,South,177,0.0,-999.0,81,-99.99,,,0.00,weatherlink.com 1.10,2013-01-04 04:05:00,
2013-01-03 23:21:00,11.9,8.0,29.98,SSW,203,2.0,-999.0,85,-99.99,,,0.00,weatherlink.com 1.10,2013-01-04 04:21:00,
2013-01-03 23:36:00,16.2,12.0,29.96,South,173,2.0,-999.0,82,-99.99,,,0.00,weatherlink.com 1.10,2013-01-04 04:36:00,
2013-01-03 23:51:00,17.6,13.0,29.96,SSW,208,2.0,-999.0,81,-99.99,,,0.00,weatherlink.com 1.10,2013-01-04 04:51:00,